星链-11706 (STARLINK-11706)

导读 | 豆包AI

STARLINK-11706是美国SpaceX星链星座的卫星,于2025年4月29日发射,星链星座旨在为全球提供低延迟、高速率的卫星互联网服务,覆盖偏远地区并为地面网络提供补充。该卫星入轨后,将进一步扩充星链星座的在轨规模,提升全球网络覆盖能力与服务稳定性,助力星链全球互联网布局推进。

基本信息
目录编号:
63753
目录名称:
STARLINK-11706
国际标识:
2025-089C
轨道中心:
EARTH
卫星名称:
星链-11706
卫星全名:
星链-11706 (STARLINK-11706)
卫星状态:
在轨 (已飞行368 天)
发射日期:
2025-04-29 UTC
国别 :
美国 (US)
星等 :
--
轨道信息
数据来源 国际轨道数据
星历时间: 2026-05-02T06:34:27+0800
12小时前
查看轨道信息
半长轴: 6734.602km
偏心率: 0.0002765
轨道倾角: 43.002°
近地点辐角 276.168°
升交点赤经 330.984°
平近点角 83.887°
近地点: 354.602km
远地点: 358.328km
周期: 91.670分钟
每日圈数: 15.708507
详细信息
固有亮度:
5
最大亮度:
2.5
卫星平台:
Starlink V1.0
覆盖范围:
全球
运营商:
太空探索技术公司
运营商所在国:
美国
制造商(研发单位):
太空探索技术公司
制造商所在国:
美国
使用方式:
暂无
卫星简介
Starlink 计划是 SpaceX 推出的全球卫星互联网项目,通过发射低轨道卫星,为全球尤其是偏远地区提供高速、低延迟的互联网服务。自 2019 年起,Starlink 已部署数千颗卫星,旨在缩小全球数字鸿沟,推动互联网普及。该项目还为军事、航空等行业提供通信支持,带来广泛经济效益。
2D轨道图
3D轨道图
轨道高度分析图
轨道倾角分析图
轨道综合分析图
查看轨道综合分析图